GFSNGP_925_thetae_159.txt.gz
Theta_e
327 328 328 327 326 326 328 329 331 331 332 334 339 338 340 341 343 343 345 347 348 350 352 350 350 350 350 352 354 356 358 359 359 357 353 353 348 345 343 340 338 336 333 338
326 325 325 326 327 327 327 328 329 328 332 334 338 334 336 338 342 346 348 347 347 347 349 351 351 351 352 355 357 359 359 358 358 356 351 349 346 344 344 341 337 333 336 336
329 327 326 326 326 327 327 328 328 330 331 333 333 334 337 342 341 344 347 347 348 348 348 349 351 353 354 356 357 357 358 357 355 351 346 346 345 342 340 336 334 335 336 336
329 330 331 330 329 327 328 328 329 330 334 337 337 338 337 339 341 345 345 347 348 347 347 348 351 354 356 356 355 356 356 353 350 348 347 344 341 338 336 334 333 334 336 337
328 331 331 330 328 328 328 330 329 331 334 332 333 334 337 336 338 341 345 348 349 346 347 347 349 353 354 353 353 353 352 351 349 348 346 342 339 337 336 334 334 336 337 336
328 329 333 331 332 328 330 333 333 333 334 334 336 334 338 341 337 344 350 349 347 347 347 348 348 350 351 350 350 351 350 349 347 345 344 342 340 338 335 335 335 336 336 333
326 328 331 333 338 331 333 335 338 334 336 335 337 339 343 339 344 347 347 346 348 348 349 348 348 348 348 347 349 347 345 345 345 345 344 342 340 337 335 335 336 336 334 334
327 329 330 340 339 334 341 341 337 337 335 339 342 342 342 344 345 345 346 346 345 347 346 345 345 345 346 346 344 344 344 343 344 344 342 340 338 335 335 335 336 336 335 333
331 328 341 340 344 339 338 343 340 340 339 342 343 343 342 342 343 344 345 344 345 347 347 347 348 349 348 343 342 341 341 342 343 343 341 338 337 335 335 335 334 335 335 334
336 342 339 335 336 338 339 341 340 341 340 339 339 337 334 331 329 329 327 327 326 327 328 332 336 340 342 340 340 340 341 341 341 341 338 336 335 335 334 334 335 336 333 332
338 334 335 334 336 339 341 339 337 337 336 333 332 329 328 328 329 328 327 326 326 328 329 330 331 335 338 338 340 341 340 339 338 334 334 334 333 334 334 333 332 331 328 329
338 338 343 339 337 337 338 337 336 333 330 328 327 327 327 328 327 327 327 327 327 328 328 328 330 331 334 333 338 340 340 337 335 332 332 330 328 325 325 324 323 323 323 326
339 334 334 332 334 334 333 332 331 328 327 327 327 328 328 328 326 325 326 326 326 326 327 328 328 327 330 332 333 335 337 336 332 331 328 327 326 326 327 322 323 325 325 319
329 329 329 329 330 328 327 326 326 327 326 326 327 325 326 328 323 326 325 322 321 324 325 323 325 328 330 331 332 334 334 332 333 331 329 326 327 327 327 326 324 316 311 309
328 328 325 326 325 324 324 325 325 324 324 325 324 325 322 325 325 323 322 322 322 322 323 323 328 333 332 331 333 334 334 334 332 331 329 328 327 328 327 326 324 315 310 309
325 325 324 326 325 324 323 323 323 323 323 322 322 322 321 322 322 320 318 321 324 326 324 330 333 332 332 333 333 332 331 331 331 331 329 329 329 328 327 326 323 315 313 312
328 329 327 327 326 324 324 325 325 326 326 326 325 323 323 325 324 324 322 324 326 328 331 333 332 331 331 331 331 331 331 330 329 331 331 329 329 327 326 326 323 317 315 314
327 328 328 329 329 329 329 328 328 328 329 327 325 325 326 326 328 327 325 325 328 330 331 330 328 327 327 326 325 326 327 328 329 329 328 327 327 326 325 324 323 318 316 313
327 328 328 328 329 329 329 329 328 327 328 327 328 329 329 328 326 327 329 330 332 332 330 327 324 323 323 321 323 324 325 325 325 326 327 325 326 325 324 322 321 320 318 315
327 326 326 326 325 326 326 324 324 325 325 326 326 327 328 328 328 326 329 331 330 330 327 325 326 326 325 323 323 323 325 325 326 326 325 325 325 325 324 322 320 317 318 315
325 325 324 323 322 321 320 321 322 323 323 323 324 326 326 327 328 329 329 329 326 326 327 324 323 324 324 324 324 325 324 325 325 326 325 324 324 325 322 319 318 315 314 313
324 323 322 320 320 318 318 319 320 321 321 321 324 325 326 326 327 327 327 329 326 325 325 324 323 320 321 320 324 325 324 323 323 322 323 323 323 322 314 315 314 312 312 309
320 319 319 319 319 318 317 318 318 319 318 319 322 325 326 325 326 327 327 324 325 323 323 322 319 318 318 322 324 324 323 322 322 322 322 319 319 317 312 311 309 310 308 307
319 317 316 316 318 319 320 318 318 318 317 317 318 320 322 322 319 319 321 322 323 322 321 319 317 318 320 319 315 315 316 317 320 320 317 314 314 313 316 313 311 308 307 306
319 318 318 318 317 316 316 317 319 319 318 317 315 315 315 315 317 320 321 320 319 319 319 317 316 316 317 317 317 315 315 314 316 314 310 309 309 309 310 312 310 307 305 305
320 320 320 320 320 320 318 316 314 313 316 315 312 312 311 314 317 317 318 316 314 314 315 314 313 313 312 312 312 313 314 313 310 310 310 309 309 309 309 308 306 306 305 304
320 320 322 321 320 320 320 320 320 318 314 313 314 312 310 311 311 312 310 308 309 309 309 310 309 309 310 311 311 310 310 310 310 310 309 308 308 308 307 306 306 305 304 304

GFSNGP_925_thetae_162.txt.gz
Theta_e
331 329 327 327 327 328 329 329 330 330 331 334 335 335 335 334 336 344 348 353 353 354 355 353 352 352 352 353 354 355 358 359 360 361 361 360 360 359 356 354 347 344 343 341
332 330 330 329 328 328 328 328 329 330 332 333 334 334 335 337 341 342 348 351 353 355 357 358 355 355 354 355 356 357 359 361 361 362 360 359 357 356 353 348 346 344 342 339
331 330 329 331 331 330 330 329 329 330 331 331 332 334 335 338 338 339 342 347 353 355 357 357 357 356 356 357 359 361 362 363 363 360 357 354 352 352 349 348 347 344 339 338
331 330 332 330 329 329 329 329 330 331 331 333 334 334 335 338 340 340 341 343 351 353 354 355 355 356 357 360 362 363 363 362 357 354 353 351 350 351 351 348 344 339 338 337
330 332 332 330 331 330 330 331 330 331 332 332 333 334 336 337 338 341 342 345 351 350 352 354 356 359 361 361 360 361 360 358 355 354 353 351 350 349 346 342 340 338 337 337
328 330 332 330 331 332 331 334 332 332 332 333 334 335 335 341 339 342 343 350 352 351 354 356 359 359 359 360 359 358 358 357 354 354 353 351 349 345 343 341 339 336 337 337
325 327 329 329 331 332 336 333 333 334 335 335 337 338 345 346 345 348 350 351 352 352 354 356 357 357 356 354 353 353 353 354 353 353 352 351 346 343 341 340 338 337 337 336
325 327 329 333 338 336 335 336 343 342 340 338 339 347 346 348 351 352 354 354 353 354 354 353 351 348 348 350 351 352 353 353 353 353 352 348 345 343 341 339 339 338 337 335
326 327 332 329 340 337 344 345 345 345 342 341 346 346 348 352 353 353 352 349 347 349 350 351 350 349 349 350 351 350 351 352 350 350 348 347 344 342 340 339 337 336 336 334
327 327 329 334 339 343 343 345 345 343 344 344 347 348 351 351 349 347 344 342 339 337 338 339 343 348 351 349 348 347 347 348 348 348 346 345 343 342 340 338 336 335 334 334
332 330 333 338 341 343 345 345 343 343 343 344 344 343 339 336 334 333 332 330 330 330 331 333 334 335 339 345 347 348 347 346 347 345 345 343 339 339 338 337 336 335 333 333
332 333 340 336 342 345 345 343 342 342 341 340 337 334 333 334 333 331 330 329 329 330 330 331 333 334 336 338 341 344 344 341 340 340 340 338 333 332 334 331 329 327 326 328
341 340 340 344 343 343 343 341 340 339 336 334 333 333 333 333 331 329 329 329 329 329 330 331 333 335 337 338 338 340 339 339 337 338 337 335 331 331 329 323 324 324 324 325
337 338 341 343 345 342 340 338 332 331 332 332 332 331 330 331 329 329 328 327 327 328 330 332 332 334 335 335 337 337 335 336 337 337 336 335 335 333 332 329 327 317 316 312
338 336 339 339 339 338 334 331 332 332 330 330 328 328 326 329 329 328 327 328 328 328 330 333 335 336 336 336 336 335 334 334 334 333 333 333 333 332 332 330 324 317 312 310
335 334 334 333 332 331 331 330 330 330 330 330 329 328 327 326 325 326 327 327 327 329 330 332 334 335 335 335 335 334 334 334 334 333 332 332 332 332 331 330 326 320 316 314
333 335 332 331 330 330 329 328 328 327 326 327 326 325 325 325 325 326 326 327 330 330 332 333 334 334 334 333 332 331 331 332 331 331 331 330 330 330 330 329 326 322 319 316
330 329 329 329 330 330 330 329 330 330 331 329 328 328 329 329 330 329 328 329 330 331 332 333 333 332 331 331 330 329 329 330 330 330 330 330 330 330 329 328 327 323 320 314
331 331 331 331 331 331 331 332 332 331 331 330 329 330 330 329 329 330 330 330 331 333 334 331 325 328 328 325 327 327 327 327 328 328 328 328 329 329 328 328 325 322 320 315
329 329 329 329 328 328 329 328 328 328 329 330 330 331 331 331 330 331 332 332 332 332 332 328 330 330 329 325 324 326 328 327 327 327 328 327 328 327 327 326 325 323 320 315
326 327 326 326 326 325 326 326 326 327 326 326 328 329 330 331 331 332 331 329 332 331 331 327 329 327 327 326 325 326 326 327 327 327 327 327 327 326 325 324 322 320 319 316
325 324 323 323 323 323 324 324 325 325 325 327 328 328 328 329 330 331 332 331 331 328 328 328 326 324 325 324 326 326 325 325 324 324 325 326 326 326 324 322 320 318 315 313
323 322 323 323 324 323 323 323 323 323 325 326 328 329 328 328 328 328 331 330 329 326 327 325 319 318 319 324 325 324 323 323 323 324 324 324 325 322 322 322 320 317 314 311
320 321 322 323 324 324 326 324 323 323 323 324 325 326 327 326 325 326 327 326 326 324 325 319 319 322 323 321 319 320 321 323 323 323 319 320 321 318 315 314 313 313 313 311
320 320 319 317 317 317 318 320 323 323 323 322 322 321 321 320 325 324 325 323 322 322 321 316 317 317 319 319 318 317 318 319 318 316 315 316 315 317 318 317 315 314 312 311
321 321 321 322 320 318 317 316 316 318 322 319 320 316 317 319 320 324 323 323 322 321 321 316 317 317 318 317 316 316 316 313 313 314 314 314 313 313 314 314 312 311 310 309
321 320 320 319 319 319 318 317 317 316 315 318 319 317 314 318 317 316 316 316 317 318 318 318 316 315 315 315 315 315 315 314 313 312 312 312 311 311 311 310 309 309 308 307

GFSNGP_925_thetae_165.txt.gz
Theta_e
328 328 329 328 328 327 328 329 332 332 333 334 336 336 336 336 337 335 335 344 350 353 355 361 359 356 356 355 356 358 361 363 365 365 364 365 364 363 363 360 359 356 350 349
331 329 329 330 329 329 328 328 329 330 331 332 333 335 336 337 337 336 337 341 347 354 355 359 357 359 357 357 359 359 362 363 363 364 365 364 364 363 363 359 355 353 350 349
335 331 331 331 332 330 329 329 329 330 331 332 332 334 335 336 336 336 335 337 343 354 361 362 357 358 357 358 359 362 363 363 364 365 367 365 363 361 358 355 351 350 349 347
335 334 336 333 332 331 331 331 331 331 331 332 333 333 334 335 336 336 336 337 340 350 357 359 359 359 358 359 361 362 364 365 367 367 363 361 360 356 354 351 350 347 347 344
334 334 333 332 331 331 332 333 332 332 332 332 332 333 335 335 335 338 339 340 343 344 355 358 359 360 360 362 364 365 366 366 362 361 359 357 354 355 353 350 350 347 344 342
333 334 338 332 331 331 331 333 331 331 332 332 333 335 334 339 335 337 344 342 346 350 355 358 359 360 364 365 365 365 364 361 359 358 357 356 355 355 352 350 345 343 340 339
331 333 332 332 331 332 336 335 333 333 333 333 338 337 341 344 352 351 349 351 352 352 355 358 361 364 364 363 362 360 360 359 359 359 357 355 354 353 347 345 343 340 339 339
329 331 333 329 330 333 337 335 335 335 337 337 339 336 348 352 354 353 354 354 353 355 361 362 362 361 360 359 355 355 356 357 357 357 355 355 350 348 346 344 342 340 340 338
328 330 330 330 332 337 337 346 344 347 346 342 341 349 351 354 354 356 356 357 358 359 359 358 355 355 355 355 355 355 356 357 357 354 351 350 347 346 344 343 342 340 339 337
331 332 329 329 330 331 338 346 345 345 345 342 343 349 352 354 356 356 356 355 354 354 353 354 352 352 354 353 354 353 353 353 353 352 350 350 347 346 344 342 341 338 337 337
331 330 330 328 328 330 332 341 345 345 345 345 348 352 354 356 355 354 351 347 344 342 343 343 345 348 350 352 352 352 351 351 351 348 348 346 340 341 341 338 337 338 337 336
332 331 332 333 331 330 335 342 345 344 345 347 350 351 347 344 340 337 337 335 336 335 335 336 336 339 341 344 346 346 346 348 349 348 344 341 335 331 335 334 335 334 332 330
336 337 340 342 339 332 337 344 345 345 346 345 343 340 337 337 336 333 334 334 335 334 335 335 336 337 336 337 339 339 338 343 342 342 342 340 339 335 331 325 325 326 325 326
329 334 339 342 342 343 343 344 341 343 340 338 337 335 335 335 334 335 335 333 333 333 333 334 335 336 336 337 338 339 338 338 339 340 338 338 337 335 332 329 328 319 316 317
332 334 336 338 342 344 343 342 340 338 338 338 335 335 334 335 335 332 331 330 331 332 332 333 334 335 336 336 336 336 336 335 335 333 334 336 336 335 334 333 329 322 312 310
331 335 337 339 343 343 340 337 338 337 336 334 333 333 331 331 331 331 330 330 330 332 333 333 333 334 335 335 334 333 334 333 333 333 333 331 332 332 332 332 326 321 317 314
330 337 340 340 344 343 337 336 335 335 334 335 334 331 330 329 329 329 329 330 330 331 334 334 334 334 334 334 333 331 331 330 332 332 331 332 331 330 332 331 326 322 320 317
329 329 337 337 337 336 335 333 333 332 332 330 329 329 330 331 333 330 330 330 331 332 334 334 333 333 332 332 332 329 329 331 329 329 330 329 330 331 331 331 328 324 321 315
330 332 334 333 334 333 333 334 334 332 332 332 332 333 331 330 329 329 329 330 332 333 334 333 329 331 331 329 328 327 327 328 328 328 329 329 329 329 329 330 328 325 320 316
332 332 333 333 333 333 334 332 332 332 332 332 331 331 332 330 330 330 330 331 332 332 332 329 331 332 332 325 324 327 327 327 327 327 328 328 330 329 329 329 327 323 320 318
329 330 331 331 331 329 329 328 328 329 328 329 331 332 332 332 330 331 331 333 335 332 331 330 330 328 329 329 323 326 326 326 327 327 327 328 328 328 328 327 325 323 320 317
325 326 326 327 328 328 327 327 327 328 328 329 328 329 330 331 331 330 331 332 333 330 329 328 327 326 327 323 327 327 327 327 326 326 326 327 329 328 326 326 324 321 319 318
325 325 325 326 327 327 325 326 327 328 329 329 329 330 329 328 328 328 331 332 331 329 329 327 324 320 321 324 326 326 325 325 324 325 325 327 328 327 325 324 323 322 319 314
324 326 326 326 325 326 328 326 326 327 327 328 328 329 329 327 328 329 330 329 328 327 327 322 319 318 321 325 325 325 323 324 324 323 324 324 324 324 324 323 322 320 316 312
319 320 320 321 323 325 325 324 325 325 326 327 326 326 325 326 326 328 328 328 325 325 323 319 321 322 321 321 320 321 322 321 323 322 323 323 321 320 320 319 318 316 315 314
322 322 322 321 319 318 318 319 322 323 323 323 322 322 323 324 325 326 326 324 323 322 320 318 319 320 321 320 319 318 318 317 317 318 319 319 319 319 318 318 317 316 315 314
321 319 320 320 318 317 317 317 317 318 321 322 321 320 320 322 322 323 321 323 323 323 319 319 318 318 319 318 317 318 318 316 314 315 316 317 317 317 317 317 316 314 313 312

GFSNGP_925_thetae_168.txt.gz
Theta_e
331 330 329 328 328 327 330 332 332 334 337 340 341 343 340 343 347 346 346 350 356 363 367 372 364 357 356 354 352 355 360 366 369 369 370 370 370 369 369 366 366 363 358 355
333 331 330 329 329 328 328 328 330 331 333 336 338 338 340 345 345 348 350 346 347 361 366 368 369 364 360 360 358 358 362 367 368 369 369 369 368 368 366 365 364 359 354 351
337 332 331 330 330 330 330 330 329 331 334 334 335 339 342 342 344 345 344 345 349 362 367 371 364 361 360 360 363 363 366 367 368 369 369 368 366 364 362 363 360 358 353 352
335 337 337 332 331 330 331 331 333 333 334 337 338 338 336 338 342 344 343 344 351 355 367 365 361 361 360 361 363 366 367 367 368 369 368 368 366 366 364 361 356 354 352 349
338 337 335 333 333 332 334 335 334 333 336 332 334 334 338 339 343 345 347 350 354 346 363 364 362 362 362 363 365 366 367 368 368 369 369 367 365 362 360 356 353 352 349 347
335 336 338 337 334 331 331 338 338 335 338 333 336 336 337 344 342 343 348 348 352 342 355 366 365 365 365 366 367 368 368 371 368 366 363 359 357 358 356 354 351 349 346 344
335 337 334 333 333 333 338 336 333 333 337 337 339 342 349 347 351 360 356 354 346 353 363 366 366 365 368 369 370 369 367 363 360 359 356 354 354 356 354 350 346 345 342 341
334 336 337 332 332 336 347 346 338 338 337 346 345 347 346 354 359 356 356 355 354 363 365 365 365 368 369 367 367 364 362 360 357 356 354 355 354 350 347 346 345 342 342 341
332 331 338 332 336 337 338 338 345 353 346 346 343 349 357 361 360 361 360 359 362 368 369 368 367 367 367 363 361 360 358 360 359 357 356 352 349 348 348 347 344 343 341 339
332 333 333 334 333 334 334 337 343 344 345 345 344 350 356 359 360 363 365 366 364 365 364 361 359 359 359 359 360 360 360 357 354 354 352 351 349 348 347 345 344 342 341 339
336 336 332 335 332 333 334 334 334 341 343 344 343 352 355 361 364 364 363 359 358 358 358 357 356 355 356 355 356 355 355 354 352 352 352 350 346 345 345 343 342 340 339 337
335 337 340 341 337 333 334 333 334 339 345 344 346 356 359 361 360 359 356 353 352 352 353 354 355 355 356 356 355 354 353 352 351 351 346 343 338 333 335 335 336 336 336 336
330 328 331 335 339 340 342 342 334 340 345 347 355 357 355 352 348 342 343 343 342 341 341 342 344 346 349 349 349 348 346 349 348 348 346 341 334 331 324 323 327 330 330 329
324 326 332 335 337 339 343 345 339 343 349 351 348 344 343 342 340 341 341 339 339 339 340 340 339 339 339 339 339 339 340 340 342 342 343 341 341 336 329 328 319 314 317 319
322 326 330 332 336 339 339 343 345 346 345 344 341 342 339 342 344 342 338 338 338 338 338 337 337 337 335 336 335 335 334 334 336 338 339 339 338 336 333 332 322 314 309 308
323 325 328 331 336 342 340 343 344 344 342 341 341 340 341 339 337 336 336 336 337 337 336 336 337 336 337 336 336 336 336 333 335 336 336 337 336 335 334 330 321 316 313 310
323 325 327 330 335 337 337 343 343 341 340 340 341 338 337 337 336 336 334 336 337 336 335 337 337 336 335 334 334 333 331 330 332 333 331 332 332 332 333 329 326 321 318 313
323 324 325 328 334 337 337 340 340 340 339 338 336 336 336 336 338 337 335 333 337 337 336 335 334 333 333 333 333 331 332 329 330 331 332 333 331 332 333 331 326 323 321 316
324 325 329 332 333 335 339 340 336 337 336 334 334 336 335 335 335 335 335 336 337 339 336 334 332 332 332 331 329 330 328 331 329 330 330 330 330 330 331 331 326 323 318 315
327 329 332 336 335 336 337 334 334 334 334 336 336 336 336 334 332 333 334 336 335 336 334 328 331 332 332 327 323 328 327 327 328 328 329 330 330 331 330 329 325 320 318 317
331 334 333 334 333 331 333 333 333 335 334 334 336 337 336 334 333 333 338 337 334 331 330 330 332 331 332 329 323 325 327 328 328 327 328 329 328 329 328 328 324 322 320 319
328 328 330 330 330 331 330 329 330 331 331 333 333 335 334 334 333 333 335 337 334 331 328 328 328 327 327 325 326 328 328 328 328 327 328 329 329 328 328 326 324 322 319 318
327 326 327 328 327 327 329 330 330 330 331 331 332 332 332 331 330 332 336 334 331 330 329 327 326 324 324 324 328 327 327 326 326 328 328 329 327 327 326 325 324 321 319 319
324 324 325 326 326 326 327 328 328 328 330 330 331 330 330 330 330 331 329 330 330 329 328 323 323 321 319 326 326 326 325 325 325 326 326 327 327 327 325 324 323 322 321 316
320 321 321 323 324 324 325 326 327 328 328 328 328 327 327 327 329 329 329 326 326 326 324 320 318 320 323 325 326 325 325 325 324 324 323 324 324 324 323 323 322 321 316 314
321 322 321 320 320 323 324 324 324 324 324 325 324 324 325 326 327 328 328 328 326 324 323 320 322 321 322 321 322 323 321 321 322 322 322 321 321 322 322 321 320 318 315 315
321 321 323 318 318 319 318 320 322 323 322 322 322 322 323 323 325 326 325 324 324 322 321 321 320 320 320 320 319 320 318 316 316 318 319 320 320 319 319 318 318 318 317 316

GFSNGP_925_thetae_171.txt.gz
Theta_e
327 328 328 327 325 324 323 323 327 330 332 331 336 341 338 338 335 335 337 340 343 347 347 354 347 345 346 349 352 353 355 363 366 367 368 368 370 370 370 368 367 365 365 363
330 328 328 328 328 325 324 324 325 327 327 329 332 334 336 339 341 340 338 344 348 348 349 353 360 354 348 348 350 352 356 357 366 366 369 369 370 370 369 367 367 366 364 359
331 331 331 331 329 329 326 325 324 324 326 329 330 331 338 341 341 339 338 338 345 347 350 353 362 362 359 352 351 352 355 361 367 368 369 371 370 369 367 366 366 364 360 356
331 336 337 332 330 330 328 330 326 326 328 330 330 331 334 333 333 339 340 341 342 352 355 360 360 359 363 364 359 360 363 368 369 369 369 368 368 367 365 364 363 359 356 352
333 334 334 332 333 331 330 330 331 332 331 332 333 332 331 334 336 336 339 341 345 355 359 363 361 359 360 365 368 368 369 369 369 369 368 368 366 364 363 362 360 357 354 351
334 333 335 335 335 332 332 333 336 334 335 333 332 331 332 334 335 344 338 338 338 350 364 362 363 359 362 366 368 368 368 368 368 367 368 366 365 364 361 358 355 353 350 348
334 334 334 334 333 333 337 340 348 338 336 335 332 333 337 343 352 347 347 345 346 365 365 364 363 361 366 366 367 369 370 369 368 367 365 363 360 359 356 354 352 349 347 344
334 336 336 336 336 342 335 339 348 349 346 345 346 346 340 351 349 351 350 360 365 366 369 367 364 365 368 368 368 367 367 364 361 359 357 357 356 356 354 351 348 346 343 341
332 335 334 332 334 333 332 336 338 345 345 344 345 358 357 355 357 355 360 365 367 369 369 369 368 367 366 363 364 363 360 358 356 354 354 355 355 353 348 347 345 343 342 340
333 331 333 328 330 329 329 332 331 334 341 342 347 355 357 357 360 362 363 363 361 360 359 359 362 363 362 360 359 358 358 357 355 355 354 353 352 348 346 345 343 342 342 338
336 332 333 334 331 334 338 331 330 330 336 343 351 356 360 362 360 359 358 358 358 357 356 357 359 360 360 359 357 358 356 356 355 354 351 349 346 345 346 344 345 343 341 339
328 323 326 326 325 332 339 340 340 338 333 343 353 358 358 358 356 355 354 355 355 354 355 355 356 356 356 357 356 356 354 353 352 351 348 342 339 334 335 338 340 340 340 338
317 319 321 322 322 334 335 337 338 338 337 351 356 356 354 351 346 346 346 347 346 347 350 353 355 356 355 353 352 352 352 351 351 348 342 336 334 334 330 330 334 335 335 336
315 316 318 320 323 330 331 336 338 338 347 353 348 345 342 341 341 340 340 341 341 342 343 343 344 343 348 349 349 349 350 348 349 346 343 338 334 331 331 325 323 323 324 326
314 315 317 321 325 329 330 336 337 343 344 343 341 339 339 339 339 339 340 340 340 340 339 338 338 339 339 337 336 336 340 340 341 341 342 341 338 332 327 322 317 312 310 310
314 317 319 320 325 328 329 334 337 338 340 339 337 338 339 340 339 339 339 339 337 336 337 337 336 335 334 331 334 334 334 334 336 336 337 339 338 333 329 321 314 309 308 308
313 319 322 324 326 326 328 334 337 337 339 337 337 339 337 336 336 337 337 338 337 337 337 336 336 337 335 335 337 336 333 332 336 338 337 337 337 335 327 321 316 312 309 308
313 318 320 323 325 327 333 335 336 340 338 338 337 336 335 334 334 336 338 335 335 336 336 336 336 336 334 334 335 333 329 330 332 333 334 335 334 331 326 322 319 315 313 310
314 317 322 326 327 329 333 336 337 340 337 336 336 335 335 336 336 336 337 337 338 337 335 333 332 332 332 331 331 330 331 328 329 331 332 332 331 332 330 327 321 319 316 314
315 324 327 328 329 334 336 335 335 334 334 334 334 336 334 335 337 334 337 338 337 335 333 332 332 332 330 326 327 328 328 331 329 330 331 332 331 332 331 326 323 318 317 316
326 327 328 332 335 335 334 335 336 336 336 336 336 336 336 336 336 338 337 335 338 334 330 329 333 332 331 324 322 325 327 328 329 330 330 331 331 331 329 322 320 317 317 317
330 330 330 331 330 331 331 332 332 333 335 336 336 335 336 336 336 337 335 333 332 327 326 331 331 331 331 326 322 328 328 328 327 327 328 330 330 329 329 322 319 318 317 318
326 328 328 328 328 329 329 330 330 330 331 331 332 332 334 334 334 335 335 334 331 329 329 329 328 327 325 325 328 327 327 326 327 328 329 328 329 328 326 322 321 320 319 317
322 324 325 326 327 326 326 327 328 329 329 328 327 328 329 331 330 333 334 332 330 328 327 325 324 323 321 327 326 326 325 325 327 327 327 328 326 326 324 323 321 320 318 317
319 320 321 322 324 324 324 326 326 326 327 327 327 327 328 330 329 328 329 328 326 326 326 325 322 319 322 327 325 325 324 325 325 325 325 327 327 326 325 324 321 320 319 317
320 319 320 321 322 319 320 323 323 323 324 324 324 326 327 327 327 328 327 326 325 325 324 321 319 320 322 322 323 324 323 324 324 323 324 325 325 324 323 323 322 320 318 314
319 319 319 320 320 319 319 321 322 323 323 322 322 323 325 326 326 326 327 326 325 323 321 320 322 321 320 322 324 322 321 321 321 322 322 323 324 323 323 322 320 318 317 314

GFSNGP_925_thetae_174.txt.gz
Theta_e
324 323 326 322 320 320 318 318 320 320 326 327 331 333 334 331 332 333 336 335 338 340 339 338 343 345 345 346 346 347 354 357 358 359 362 363 363 363 363 364 365 366 365 364
324 325 324 326 325 321 321 320 321 322 323 325 326 329 334 335 332 333 336 336 340 343 341 339 340 342 345 347 347 348 352 357 359 361 363 364 365 365 366 366 367 368 365 362
326 325 325 326 325 325 321 320 321 322 321 323 325 330 334 337 334 333 333 336 338 342 344 347 351 343 342 344 348 350 350 354 360 363 365 366 366 367 368 369 366 362 362 364
323 327 329 326 325 325 326 326 322 321 320 323 323 323 328 327 333 335 333 336 337 338 339 347 356 350 347 344 346 350 351 353 359 364 366 367 367 368 369 368 365 363 364 361
328 326 327 331 329 326 327 328 329 323 322 325 324 326 329 326 326 330 333 334 334 340 346 355 358 361 360 354 349 350 353 358 362 365 367 367 368 369 367 366 364 363 361 356
328 328 330 327 331 330 326 327 333 341 326 327 326 325 323 330 331 333 336 337 342 349 354 358 359 362 364 364 361 361 363 365 366 366 367 369 368 365 364 362 359 357 354 353
328 330 328 330 332 330 331 330 333 343 337 330 328 325 323 331 343 333 333 335 345 358 357 358 360 361 364 365 364 366 367 367 367 367 367 366 364 360 360 359 356 353 351 347
328 330 333 328 330 331 328 328 336 338 341 341 345 331 341 342 343 348 353 352 359 360 360 361 361 361 363 364 367 367 367 367 366 365 363 362 361 358 356 355 353 349 345 337
327 329 326 325 329 329 331 332 330 326 328 339 352 352 348 350 355 360 360 361 363 362 362 363 363 363 362 363 366 366 365 363 363 362 361 358 356 356 353 352 349 344 341 337
326 323 320 322 321 321 323 335 336 337 327 336 352 354 357 361 362 360 357 357 359 360 359 360 363 363 363 362 365 362 357 355 355 355 354 354 353 352 350 347 344 342 339 335
326 319 319 320 319 319 321 330 334 336 337 332 352 358 358 358 357 355 355 356 357 358 358 359 360 360 361 361 361 356 354 353 351 350 350 347 346 346 346 345 343 342 340 338
320 314 317 316 315 316 321 329 330 335 337 336 351 356 355 354 353 353 352 353 353 354 355 356 358 358 357 356 355 354 351 349 346 344 343 344 343 339 342 343 344 342 341 340
310 311 311 313 314 317 317 327 334 334 336 335 354 354 352 349 348 350 352 352 352 352 354 355 356 355 356 355 354 353 351 348 347 345 342 340 337 337 332 334 338 339 339 338
310 310 311 312 313 314 320 328 330 333 339 340 350 347 345 343 343 343 343 345 349 350 350 352 353 354 355 355 354 352 351 350 348 344 342 339 338 334 335 332 331 330 333 334
309 310 309 311 313 316 321 326 331 333 335 339 343 342 342 340 339 338 340 342 344 344 342 346 346 345 350 350 349 349 349 349 346 344 343 340 334 331 327 325 324 319 322 318
308 308 308 310 313 317 322 324 332 333 334 336 337 337 338 338 337 337 339 340 338 336 338 339 338 337 341 345 347 346 346 346 345 343 339 336 332 327 325 323 318 316 314 311
307 308 308 310 315 320 323 327 332 332 333 335 335 337 337 336 336 336 336 337 337 337 335 335 334 332 332 330 329 332 333 336 336 336 339 338 334 329 324 320 314 312 311 310
307 307 309 310 311 318 324 328 329 332 334 335 336 335 336 335 334 334 335 336 336 335 335 336 336 333 334 335 335 334 335 334 335 336 336 337 336 331 324 321 316 313 310 309
307 308 308 308 310 322 324 326 328 332 336 334 333 333 333 333 335 334 335 335 335 334 334 335 335 334 334 334 334 333 332 332 336 336 337 336 335 332 325 322 318 315 311 309
307 307 311 314 325 325 326 329 332 335 335 334 333 333 332 334 335 334 334 334 336 336 335 333 332 332 331 330 329 328 329 327 330 331 332 334 332 329 325 322 319 315 313 310
308 308 309 322 330 332 332 332 332 333 333 334 332 331 333 333 334 334 334 334 336 334 332 331 332 331 328 325 324 325 326 329 328 328 331 331 331 330 327 322 319 316 314 312
310 310 314 326 327 328 330 331 333 333 334 333 333 333 334 334 334 336 336 336 335 333 331 331 331 331 331 324 326 327 328 329 330 330 331 331 331 331 329 323 321 318 316 315
324 326 327 328 327 328 329 329 328 329 330 330 331 332 332 334 335 333 331 335 335 333 327 332 331 330 328 327 327 327 327 328 329 329 329 330 330 329 327 323 319 317 316 315
323 325 325 325 325 323 325 325 327 327 327 328 330 330 331 330 332 335 334 333 330 327 330 330 327 325 324 327 327 326 326 326 328 328 328 329 329 329 327 322 319 318 317 314
320 320 321 323 323 324 324 325 325 324 325 326 328 330 330 330 331 331 332 330 328 328 327 325 324 323 321 327 326 325 325 326 326 327 327 327 327 327 325 321 319 318 317 315
319 319 319 318 319 322 323 323 323 323 323 323 324 327 328 327 328 329 328 327 325 324 323 324 324 321 321 325 325 324 324 325 325 325 326 327 326 323 322 321 321 320 318 317
319 318 318 318 318 316 318 320 320 321 322 323 322 320 323 325 326 326 326 325 325 326 326 324 319 320 321 321 323 323 322 323 324 323 325 325 326 325 324 323 321 320 319 317